Date,TemperatureHighF,TemperatureAvgF,TemperatureLowF,DewpointHighF,DewpointAvgF,DewpointLowF,HumidityHigh,HumidityAvg,HumidityLow,PressureMaxIn,PressureMinIn,WindSpeedMaxMPH,WindSpeedAvgMPH,GustSpeedMaxMPH,PrecipitationSumIn
2013-1-1,46.6,42.5,37.4,38.3,31.3,18.8,88,66,37,30.15,30.00,13,4,13,0.18
2013-1-2,50.0,38.8,34.7,38.1,32.4,29.2,89,78,52,30.30,30.06,7,3,10,0.07
2013-1-3,42.4,33.7,31.1,28.4,21.2,17.5,77,60,51,30.34,30.25,8,3,9,0.00
2013-1-4,49.1,36.4,28.0,20.9,17.1,14.2,58,46,27,30.35,30.25,16,7,16,0.00
2013-1-5,52.3,39.7,28.8,28.5,19.0,15.1,67,45,23,30.46,30.30,8,4,8,0.00
2013-1-6,56.5,43.4,33.6,34.5,28.5,23.8,81,57,35,30.31,30.14,13,4,16,0.02
2013-1-7,58.8,39.5,27.1,30.6,25.5,18.9,76,59,30,30.53,30.26,8,2,10,0.00
2013-1-8,53.4,37.8,27.1,35.3,28.6,19.0,84,70,48,30.55,30.46,10,3,11,0.00
2013-1-9,41.2,39.0,37.9,34.0,32.3,31.1,79,76,74,30.49,30.46,4,2,4,0.00
2013-1-10,63.5,48.8,36.0,43.4,34.1,27.3,86,60,28,30.66,30.49,7,2,7,0.00
2013-1-11,42.6,40.5,37.9,41.0,35.3,28.4,94,82,64,30.55,30.22,8,3,8,0.04
2013-1-12,72.3,51.9,38.1,55.7,46.5,36.8,95,83,56,30.26,30.20,5,2,5,0.00
2013-1-13,73.0,59.5,49.1,57.9,52.7,46.6,91,80,59,30.22,30.12,12,4,12,0.00
2013-1-14,61.9,56.3,41.5,57.6,51.7,38.0,88,85,78,30.34,30.13,14,6,14,0.46
2013-1-15,41.2,38.3,36.7,37.9,35.0,32.9,90,88,86,30.40,30.21,8,4,8,0.96
2013-1-16,43.7,39.4,35.6,40.5,35.7,31.8,90,86,84,30.22,30.02,11,3,14,0.48
2013-1-17,46.8,42.1,31.6,43.4,38.8,28.0,90,88,84,30.23,30.08,12,2,15,0.76
2013-1-18,52.9,37.1,27.0,38.0,23.9,15.2,88,62,28,30.59,30.23,6,2,8,0.50
2013-1-19,55.2,37.9,26.4,29.1,21.4,16.1,68,53,27,30.55,30.27,14,6,17,0.00
2013-1-20,60.1,42.3,33.6,30.4,23.4,19.3,60,48,23,30.17,30.03,19,5,19,0.00
2013-1-21,57.4,41.2,24.4,30.2,16.5,-1.0,74,40,21,30.18,29.92,21,7,34,0.00
2013-1-22,33.6,24.9,16.0,4.9,-4.7,-12.0,42,27,20,30.36,30.04,18,6,21,0.00
2013-1-23,38.5,23.6,8.6,12.3,-0.5,-12.2,57,36,20,30.43,30.15,20,5,20,0.00
2013-1-24,37.6,25.2,11.5,14.2,3.1,-9.2,72,41,20,30.61,30.09,14,4,20,0.00
2013-1-25,23.0,18.0,10.8,14.9,6.3,-3.3,78,61,36,30.59,30.15,15,4,15,0.00
2013-1-26,46.8,30.0,16.7,28.7,18.0,9.9,79,62,33,30.51,30.14,11,3,14,0.06
2013-1-27,37.8,28.9,21.7,21.4,18.1,13.5,74,64,49,30.68,30.50,8,3,8,0.00
2013-1-28,59.4,41.7,30.7,42.4,32.5,20.4,82,71,46,30.56,30.25,19,8,19,0.12
2013-1-29,77.0,58.1,44.1,51.6,44.3,36.8,78,62,37,30.26,30.12,16,7,17,0.00
2013-1-30,68.4,64.5,56.3,59.2,56.1,50.7,84,74,67,30.12,29.44,29,12,46,0.74
2013-1-31,54.7,42.6,27.7,49.6,23.4,8.5,86,49,22,30.05,29.46,37,15,39,0.26
2013-2-1,47.8,30.2,14.5,24.0,4.8,-8.3,73,36,20,30.48,29.89,25,9,36,0.00
2013-2-2,41.2,25.1,10.8,21.3,9.1,-2.6,72,53,23,30.46,30.09,17,4,19,0.00
2013-2-3,51.4,35.0,23.4,27.4,19.1,13.0,75,54,25,30.09,29.93,24,6,24,0.00
2013-2-4,39.0,30.9,21.0,20.0,13.8,8.5,63,49,33,30.21,30.03,14,5,15,0.00
2013-2-5,67.5,48.1,34.5,35.6,29.6,19.8,64,50,27,30.04,29.95,24,9,30,0.00
2013-2-6,78.3,47.7,30.4,32.1,25.7,16.5,76,48,12,30.40,30.04,14,4,15,0.00
2013-2-7,47.3,36.0,26.8,29.0,24.9,19.8,85,65,43,30.48,30.22,10,4,11,0.15
2013-2-8,70.5,43.8,32.2,46.1,32.4,20.8,90,66,28,30.22,29.89,21,6,25,0.34
2013-2-9,72.3,40.1,24.3,21.4,14.6,6.4,64,40,11,30.46,30.08,14,4,17,0.00
2013-2-10,56.7,35.9,17.4,31.2,15.8,7.4,82,47,21,30.58,30.31,13,3,13,0.04
2013-2-11,55.2,46.1,36.1,49.5,41.2,31.2,92,83,67,30.31,29.95,20,8,21,0.07
2013-2-12,69.6,51.0,37.9,39.5,23.0,16.5,67,35,14,30.13,29.98,21,7,24,0.00
2013-2-13,46.2,41.3,30.2,37.9,32.6,25.1,89,72,45,30.04,29.75,12,3,12,0.05
2013-2-14,68.2,42.7,24.4,40.1,25.7,20.6,89,58,17,30.14,29.90,13,4,14,0.01
2013-2-15,73.9,47.4,26.2,36.5,28.5,21.5,87,54,15,30.17,29.99,12,4,18,0.00
2013-2-16,40.6,33.2,19.4,33.5,28.2,15.7,87,82,70,30.09,29.95,3,0,6,0.11
2013-2-17,54.5,25.7,8.6,26.6,7.5,-5.8,81,51,19,30.33,29.98,0,0,0,0.17
2013-2-18,62.8,35.4,5.4,21.9,11.0,-4.3,68,40,18,30.47,30.28,8,3,12,0.01
2013-2-19,56.3,38.4,31.3,45.5,27.8,9.2,88,67,28,30.28,29.89,13,5,21,0.08
2013-2-20,50.4,38.8,28.2,13.6,9.1,3.8,46,30,21,30.25,30.01,13,5,24,0.00
2013-2-21,74.7,40.1,21.9,24.0,13.3,8.1,56,36,12,30.40,30.22,9,2,14,0.00
2013-2-22,46.9,35.3,29.1,26.3,21.1,14.1,74,56,41,30.46,30.25,6,2,8,0.00
2013-2-23,63.0,40.3,32.2,42.5,33.6,25.9,90,78,44,30.26,29.92,4,1,8,0.01
2013-2-24,73.9,46.6,32.2,44.1,26.4,16.3,91,55,12,30.19,29.89,12,2,23,0.01
2013-2-25,57.2,34.6,22.8,21.9,16.8,14.0,74,52,23,30.32,30.18,6,2,10,0.00
2013-2-26,25.2,25.2,23.2,16.6,16.5,14.9,71,69,69,30.29,30.27,1,0,2,0.00
2013-2-27,25.2,25.2,25.2,16.5,16.5,16.5,69,69,69,30.27,30.27,0,0,2,0.00
2013-2-28,25.2,25.2,25.2,16.5,16.5,16.5,69,69,69,30.27,30.27,0,0,2,0.00
2013-3-1,25.2,25.2,25.2,16.5,16.5,16.5,69,69,69,30.27,30.27,0,0,2,0.00
2013-3-2,25.2,25.2,25.2,16.5,16.5,16.5,69,69,69,30.27,30.27,0,0,2,0.00
2013-3-3,25.2,25.2,25.2,16.5,16.5,16.5,69,69,69,30.27,30.27,0,0,2,0.00
2013-3-4,25.2,25.2,25.2,16.5,16.5,16.5,69,69,69,30.27,30.27,0,0,2,0.00
2013-3-5,25.2,25.2,25.2,16.5,16.5,16.5,69,69,69,30.27,30.27,0,0,2,0.00
2013-3-6,25.2,25.2,25.2,16.5,16.5,16.5,69,69,69,30.27,30.27,0,0,2,0.00
2013-3-7,25.2,25.2,25.2,16.5,16.5,16.5,69,69,69,30.27,30.27,0,0,2,0.00
2013-3-8,25.2,25.2,25.2,16.5,16.5,16.5,69,69,69,30.27,30.27,0,0,2,0.00
2013-3-9,58.6,26.1,25.2,58.4,17.0,16.5,99,68,48,30.27,29.92,5,0,7,1.69
2013-3-10,80.2,51.2,26.6,30.6,21.4,16.3,69,38,12,29.95,29.83,8,2,15,0.00
2013-3-11,67.5,52.8,39.0,49.4,38.5,21.6,71,59,36,29.86,29.55,11,4,16,0.00
2013-3-12,76.8,58.7,38.5,59.3,45.2,25.6,99,66,19,29.60,29.36,13,6,21,0.69
2013-3-13,61.9,40.6,27.7,33.5,22.6,12.0,73,51,22,29.75,29.59,14,4,29,0.00
2013-3-14,66.0,43.6,25.9,18.7,13.9,8.5,55,32,16,29.83,29.70,14,5,21,0.00
2013-3-15,62.2,39.7,27.1,33.8,18.2,10.4,55,42,23,29.77,29.47,13,4,21,0.00
2013-3-16,85.1,69.8,43.3,52.7,45.8,32.8,92,45,28,29.49,29.19,12,6,21,0.24
2013-3-17,51.4,39.0,34.9,49.2,36.9,31.8,96,92,85,29.86,29.48,8,3,14,0.17
2013-3-18,36.9,33.2,31.5,33.8,30.6,29.4,92,90,87,29.88,29.53,6,2,12,0.33
2013-3-19,75.9,48.3,30.9,47.5,24.8,5.2,95,53,12,29.65,29.41,22,6,36,0.05
2013-3-20,67.3,46.1,28.6,18.4,11.1,0.3,46,25,15,29.69,29.39,14,4,27,0.00
2013-3-21,55.4,37.3,22.8,31.7,14.1,-0.4,85,43,19,29.59,29.39,14,3,24,0.02
2013-3-22,63.7,36.7,20.1,18.4,10.2,4.7,57,36,17,29.66,29.55,13,4,21,0.00
2013-3-23,73.0,44.2,23.7,25.9,17.7,9.2,64,39,12,29.69,29.53,10,2,17,0.00
2013-3-24,40.6,37.4,31.8,25.3,21.5,18.9,65,52,47,29.59,29.55,5,3,11,0.00
2013-4-1,73.4,55.0,39.9,41.7,33.0,25.5,56,44,32,29.63,29.45,11,5,15,0.01
2013-4-2,68.0,45.0,27.1,24.9,17.5,10.6,66,38,13,29.79,29.65,14,4,24,0.05
2013-4-3,77.4,45.7,22.6,23.6,14.7,7.0,68,33,12,29.99,29.79,11,2,19,0.00
2013-4-4,63.3,37.5,27.9,30.5,18.4,9.1,88,51,17,30.04,29.65,8,2,14,0.58
2013-4-5,83.3,50.1,33.6,60.9,36.7,28.9,93,68,15,29.66,29.51,8,2,14,0.12
2013-4-6,79.3,51.3,33.1,33.7,23.5,14.5,79,40,11,29.93,29.67,8,2,14,0.00
2013-4-7,82.4,56.1,32.2,43.7,33.9,22.6,71,46,22,29.89,29.68,17,5,24,0.00
2013-4-8,90.0,68.7,51.6,51.6,46.2,40.4,72,48,22,29.76,29.64,11,5,18,0.00
2013-4-9,94.1,74.8,57.2,59.5,51.2,48.0,72,46,24,29.79,29.65,13,5,20,0.00
2013-4-10,98.8,77.8,59.4,61.0,54.3,51.4,76,48,23,29.69,29.53,14,5,23,0.00
2013-4-11,92.7,74.6,61.7,61.4,56.5,54.0,76,55,31,29.57,29.40,14,6,23,0.00
2013-4-12,90.1,71.6,56.7,66.9,55.3,36.2,93,61,22,29.41,29.23,17,6,24,0.00
2013-4-13,83.1,63.5,40.8,44.1,33.7,21.5,77,37,14,29.62,29.38,13,4,21,0.00
2013-4-14,92.1,67.8,42.3,45.3,35.3,24.8,66,34,13,29.75,29.62,8,2,12,0.00
2013-4-15,78.3,59.1,52.7,68.6,53.0,41.1,94,81,45,29.89,29.69,8,2,12,0.00
2013-4-16,86.4,65.5,55.6,61.1,55.2,52.4,89,72,42,29.96,29.81,7,2,13,0.00
2013-4-17,98.1,74.2,56.3,63.4,57.7,52.5,90,61,26,29.85,29.74,8,2,11,0.00
2013-4-18,80.4,68.5,60.3,62.1,58.1,53.8,92,72,43,29.83,29.66,10,3,17,0.06
2013-4-19,77.7,68.8,63.0,63.6,59.5,55.2,84,73,59,29.66,29.31,12,5,21,0.00
2013-4-20,70.0,55.9,40.5,48.6,29.5,21.6,83,41,17,29.93,29.44,13,2,23,0.00
2013-4-21,65.7,49.3,35.8,33.2,29.8,24.8,72,49,27,30.17,29.93,9,2,15,0.00
2013-4-22,66.0,48.4,29.5,39.0,31.7,20.8,85,56,26,30.15,29.94,9,3,17,0.00
2013-4-23,75.7,56.5,43.5,49.1,42.7,38.0,85,62,36,29.97,29.74,6,2,10,0.01
2013-4-24,77.9,62.8,45.0,55.4,49.6,41.3,90,65,40,29.77,29.54,16,5,29,0.00
2013-4-25,73.8,58.5,42.3,53.4,35.7,22.9,74,46,18,29.92,29.64,8,2,17,0.00
2013-4-26,75.0,55.3,33.8,42.0,33.9,27.7,81,50,20,30.08,29.93,26,2,53,0.00
2013-4-27,77.2,60.5,45.5,47.5,43.3,39.6,85,56,27,30.02,29.90,7,1,10,0.00
2013-4-28,61.7,55.1,51.4,50.9,47.0,42.3,88,74,64,29.91,29.75,4,1,8,0.01
2013-4-29,74.8,57.3,51.1,57.6,51.6,47.0,93,82,55,29.75,29.63,4,1,7,0.00
2013-4-30,71.1,59.4,51.1,55.6,52.5,48.3,92,79,58,29.88,29.69,8,2,12,0.00
2013-5-1,76.6,60.6,52.5,51.7,47.6,38.0,90,66,26,30.01,29.86,8,2,14,0.00
2013-5-2,72.9,57.6,47.5,52.1,45.2,40.1,84,64,42,30.03,29.93,5,2,11,0.00
2013-5-3,74.7,54.9,39.4,51.7,43.2,36.2,90,67,42,29.97,29.85,9,2,13,0.00
2013-5-4,62.1,51.4,40.5,48.6,42.8,36.9,88,73,59,29.91,29.77,8,2,12,0.00
2013-5-5,69.4,50.0,38.3,49.1,40.4,33.5,86,71,47,29.81,29.72,8,3,17,0.00
2013-5-6,59.5,56.0,50.9,55.3,52.2,46.0,91,87,72,29.74,29.51,8,3,17,0.01
2013-5-7,76.3,60.5,50.9,62.3,54.3,47.5,90,81,48,29.59,29.50,8,2,14,0.00
2013-5-8,61.3,55.2,50.5,56.2,50.7,46.8,90,85,74,29.65,29.56,3,1,6,0.00
2013-5-9,84.2,64.7,46.6,61.1,52.0,43.8,90,67,37,29.68,29.59,10,2,14,0.00
2013-5-10,88.2,71.8,52.3,62.1,55.8,48.0,86,59,36,29.68,29.55,9,2,15,0.00
2013-5-11,80.1,68.5,60.8,62.7,58.0,54.2,88,70,49,29.57,29.41,12,3,17,0.63
2013-5-12,72.5,60.6,42.4,57.6,41.8,27.9,89,55,21,29.70,29.43,8,2,17,0.00
2013-5-13,68.9,51.5,36.3,41.5,32.3,23.7,84,53,22,29.82,29.69,8,1,16,0.00
2013-5-14,74.7,54.7,32.2,42.1,35.7,27.5,87,54,22,29.87,29.67,11,2,16,0.00
2013-5-15,89.2,72.4,50.7,63.8,54.8,40.0,70,55,41,29.68,29.46,11,4,18,0.00
2013-5-16,88.9,76.7,61.9,61.9,57.8,53.2,75,53,37,29.62,29.50,11,3,19,0.00
2013-5-17,93.7,73.4,60.3,64.2,58.7,53.0,85,62,35,29.76,29.60,6,1,9,0.01
2013-5-18,66.4,62.3,57.9,61.6,58.4,55.2,91,87,80,29.85,29.75,4,1,10,0.96
2013-5-19,78.1,65.9,61.3,66.9,61.3,58.4,91,85,66,29.82,29.71,4,1,7,0.43
2013-5-20,81.5,68.0,63.5,67.0,63.2,59.9,91,85,61,29.76,29.70,5,1,8,0.00
2013-5-21,93.9,79.0,66.4,70.5,66.2,62.1,88,66,46,29.68,29.56,6,2,10,0.00
2013-5-22,71.6,68.7,65.1,65.0,63.7,60.9,87,84,78,29.62,29.56,5,3,13,0.21
2013-5-23,83.5,70.6,61.0,65.5,61.9,55.3,89,75,54,29.59,29.43,7,2,11,0.24
2013-5-24,72.1,61.3,44.6,56.4,46.8,34.0,85,62,33,29.82,29.44,8,2,17,0.00
2013-5-25,78.4,55.2,34.7,42.0,34.7,19.3,86,52,13,29.89,29.75,8,1,14,0.00
2013-5-26,82.6,60.7,38.8,50.4,40.3,33.0,84,53,18,29.90,29.79,5,1,11,0.02
2013-5-27,82.0,63.2,43.5,57.1,48.4,38.4,85,61,34,29.92,29.81,7,1,9,0.00
2013-5-28,89.4,71.3,52.5,65.9,58.3,48.5,87,66,42,29.84,29.74,8,2,15,0.00
2013-5-29,92.5,77.2,64.8,68.1,61.9,58.7,82,61,42,29.84,29.77,10,3,14,0.00
2013-5-30,92.5,76.9,62.8,66.1,61.6,56.7,82,61,39,29.88,29.80,8,3,14,0.00
2013-5-31,92.5,77.9,63.3,67.0,61.2,55.5,78,58,38,29.84,29.73,9,3,14,0.00
2013-6-1,91.9,78.9,66.2,68.2,63.0,59.5,84,60,42,29.74,29.63,11,4,17,0.00
2013-6-2,89.1,72.9,65.7,72.0,63.6,59.7,90,74,48,29.65,29.55,9,2,18,0.61
2013-6-3,90.7,74.1,66.0,70.2,64.6,62.1,90,74,41,29.62,29.48,3,0,8,0.01
2013-6-4,88.2,70.9,57.2,62.6,57.4,51.4,89,65,35,29.77,29.61,5,1,10,0.01
2013-6-5,86.2,70.3,53.8,62.2,56.7,48.9,86,64,42,29.81,29.69,4,1,8,0.00
2013-6-6,76.5,65.4,60.1,66.4,59.0,52.5,90,80,67,29.70,29.46,4,1,14,0.00
2013-6-7,73.0,68.1,64.9,67.2,63.3,61.9,90,85,76,29.48,29.25,5,1,11,0.50
2013-6-8,91.4,72.7,63.1,64.2,60.3,57.5,87,68,36,29.75,29.44,5,1,8,0.18
2013-6-9,93.6,76.3,60.6,74.1,64.3,55.9,86,68,44,29.81,29.70,6,1,10,0.15
2013-6-10,85.5,72.9,65.5,70.4,65.7,60.2,87,79,57,29.75,29.49,14,3,20,0.60
2013-6-11,87.3,75.1,66.4,64.6,62.1,58.0,87,66,43,29.58,29.50,11,3,18,0.04
2013-6-12,95.0,81.2,69.1,69.8,63.3,58.5,69,55,44,29.59,29.54,8,4,14,0.00
2013-6-13,91.4,75.3,63.3,69.3,65.7,57.0,87,74,46,29.49,29.21,21,4,34,0.39
2013-6-14,87.1,70.9,55.6,60.1,54.9,50.2,83,60,36,29.66,29.34,5,1,12,0.00
2013-6-15,87.6,74.1,54.9,61.1,56.5,50.4,86,57,34,29.75,29.66,7,2,12,0.00
2013-6-16,90.0,76.2,62.6,67.5,62.0,55.3,78,62,43,29.71,29.61,8,3,14,0.00
2013-6-17,87.1,71.7,66.6,69.4,64.6,62.3,88,79,54,29.66,29.62,7,2,10,0.35
2013-6-18,78.4,71.5,63.5,67.6,63.2,58.6,84,75,67,29.56,29.45,6,1,10,0.07
2013-6-19,84.4,70.1,59.7,64.5,60.6,55.8,87,73,51,29.79,29.55,3,1,5,0.00
2013-6-20,88.7,72.6,61.7,63.5,59.1,54.0,86,65,41,29.92,29.80,3,1,5,0.00
2013-6-21,90.1,72.2,55.6,62.8,55.8,50.8,85,60,32,29.94,29.87,2,1,4,0.00
2013-6-22,90.7,71.1,57.2,67.6,64.0,52.9,87,80,45,29.91,29.79,4,1,10,0.43
2013-6-23,93.4,77.0,68.2,70.2,66.4,63.9,87,72,46,29.85,29.75,6,1,10,0.07
2013-6-24,94.1,79.6,68.0,70.9,66.6,62.7,84,66,44,29.83,29.71,5,2,11,0.00
2013-6-25,93.7,79.8,69.1,70.6,66.7,63.6,86,66,42,29.74,29.61,8,2,13,0.00
2013-6-26,95.5,77.1,67.5,71.9,66.1,61.2,87,71,44,29.63,29.50,7,2,19,0.13
2013-6-27,85.1,74.0,66.4,69.3,65.0,61.4,86,74,56,29.56,29.35,11,3,19,0.02
2013-6-28,93.0,80.1,71.1,71.4,65.1,61.7,75,61,43,29.37,29.19,10,4,17,0.05
2013-6-29,91.0,78.5,65.5,66.7,63.2,59.3,83,62,36,29.37,29.23,7,2,8,0.00
2013-6-30,89.2,74.8,67.6,71.6,66.5,62.6,87,76,50,29.53,29.36,8,1,11,1.57
2013-7-1,89.8,75.4,67.6,71.3,66.4,63.7,87,75,48,29.64,29.50,5,1,10,0.15
2013-7-2,81.1,73.2,70.7,70.8,66.7,65.3,84,80,66,29.84,29.63,5,1,11,0.74
2013-7-3,89.8,75.3,69.8,71.6,67.4,64.4,86,77,54,29.89,29.80,7,2,10,0.57
2013-7-4,93.0,78.5,69.6,70.3,67.4,64.4,85,70,46,29.93,29.83,9,2,12,0.04
2013-7-5,92.3,78.8,69.4,71.1,67.6,64.8,85,70,49,29.92,29.81,7,2,11,0.00
2013-7-6,91.8,79.1,69.6,70.0,66.9,64.4,84,68,45,29.89,29.77,8,2,14,0.09
2013-7-7,91.0,78.3,70.2,70.6,67.3,63.1,85,70,51,29.82,29.70,9,3,17,0.00
2013-7-8,93.2,78.0,68.9,69.4,65.6,62.9,85,67,43,29.81,29.74,5,2,11,0.19
2013-7-9,94.6,80.6,70.3,71.8,68.0,64.1,84,67,46,29.79,29.69,5,1,8,0.00
2013-7-10,93.9,79.2,71.2,74.0,68.3,65.5,84,71,49,29.72,29.58,5,2,13,0.22
2013-7-11,89.2,73.5,69.8,71.6,66.2,63.7,84,79,53,29.62,29.54,7,2,12,2.56
2013-7-12,71.8,68.5,64.9,64.9,62.4,60.7,86,81,71,29.70,29.53,4,1,12,0.19
2013-7-13,88.7,74.8,65.3,71.0,65.3,60.7,85,73,54,29.88,29.69,4,1,8,0.08
2013-7-14,96.4,79.2,67.8,72.8,67.0,62.7,84,68,44,30.00,29.88,4,1,6,0.00
2013-7-15,103.3,82.4,66.9,74.0,67.6,62.0,84,64,36,29.99,29.89,4,1,7,0.00
2013-7-16,103.3,85.0,69.6,75.3,69.3,62.9,82,62,37,29.92,29.84,2,0,6,0.00
2013-7-17,101.8,84.6,72.7,76.8,70.9,67.3,85,66,41,29.89,29.77,4,0,6,0.00
2013-7-18,104.7,86.1,70.0,77.6,70.5,65.0,85,63,36,29.81,29.69,3,0,5,0.01
2013-7-19,97.3,84.1,72.3,74.0,70.2,66.5,85,65,45,29.73,29.60,6,2,10,0.00
2013-7-20,93.4,78.6,73.2,73.5,66.7,62.8,78,68,48,29.63,29.53,6,3,11,0.01
2013-7-21,96.3,78.8,70.7,72.6,67.6,64.4,84,70,45,29.62,29.56,5,2,11,0.81
2013-7-22,92.3,77.1,68.7,71.6,67.1,64.1,85,72,50,29.62,29.45,5,1,9,0.01
2013-7-23,93.4,79.9,71.6,69.5,66.3,62.5,82,65,45,29.46,29.36,7,2,11,0.00
2013-7-24,99.3,78.6,64.8,72.0,65.0,58.1,84,65,40,29.56,29.37,5,1,11,0.51
2013-7-25,91.0,72.0,63.3,65.0,59.5,55.8,85,67,42,29.70,29.53,5,1,9,0.01
2013-7-26,90.0,74.4,59.4,65.2,60.0,53.9,84,63,39,29.76,29.68,4,1,8,0.00
2013-7-27,82.2,72.1,64.4,66.0,62.4,58.3,83,72,56,29.71,29.59,8,1,13,0.00
2013-7-28,90.7,75.1,66.7,69.7,63.9,59.1,84,70,44,29.66,29.56,6,2,12,0.07
2013-7-29,91.9,75.7,64.0,63.7,60.1,56.3,85,62,34,29.77,29.64,6,1,9,0.00
2013-7-30,92.1,72.7,57.2,64.6,58.9,51.4,82,64,40,29.88,29.80,2,0,4,0.00
2013-7-31,85.6,70.8,61.7,66.5,61.8,56.8,85,74,53,29.81,29.66,3,0,4,0.11
2013-8-1,90.9,75.2,66.9,68.8,64.6,60.9,84,71,46,29.66,29.49,5,1,8,0.12
2013-8-2,90.9,76.6,62.4,66.0,60.8,57.5,85,61,35,29.66,29.55,6,1,8,0.07
2013-8-3,90.5,74.1,63.5,66.5,61.9,55.6,77,67,42,29.65,29.57,3,0,4,0.00
2013-8-4,93.7,76.5,62.1,65.5,60.3,54.0,84,61,32,29.71,29.57,4,0,10,0.00
2013-8-5,89.2,71.5,57.2,62.6,57.2,51.4,83,63,36,29.77,29.67,4,1,9,0.00
2013-8-6,87.6,73.0,64.4,69.0,62.3,57.6,84,70,53,29.70,29.62,6,1,11,0.02
2013-8-7,87.1,75.1,67.6,68.5,63.8,59.8,82,69,51,29.73,29.67,8,2,15,0.00
2013-8-8,90.7,77.1,69.6,69.0,65.5,63.4,83,69,47,29.71,29.65,8,2,14,0.02
2013-8-9,93.4,80.8,72.5,71.6,67.9,64.5,79,66,47,29.66,29.59,9,4,17,0.00
2013-8-10,95.5,79.7,70.3,71.5,67.4,64.3,82,67,45,29.75,29.65,8,2,13,0.02
2013-8-11,91.4,75.9,68.5,71.5,66.5,62.5,83,74,51,29.77,29.66,3,0,11,0.39
2013-8-12,99.9,79.7,66.0,71.6,66.4,61.2,85,66,39,29.70,29.59,7,1,12,0.02
2013-8-13,88.9,75.4,69.3,69.9,65.5,63.0,83,72,51,29.60,29.43,7,2,10,0.05
2013-8-14,86.2,70.9,59.0,63.7,56.7,50.0,79,63,36,29.77,29.48,4,1,8,0.00
2013-8-15,86.7,64.9,52.0,60.5,51.9,47.0,83,65,35,29.83,29.75,3,0,5,0.00
2013-8-16,84.7,64.7,50.0,60.5,52.8,45.4,84,68,38,29.85,29.77,3,0,6,0.00
2013-8-17,77.9,65.1,54.0,61.6,55.9,48.6,85,73,53,29.88,29.82,4,1,8,0.22
2013-8-18,71.2,64.4,62.2,62.6,57.9,56.9,83,80,71,29.88,29.79,4,1,11,0.41
2013-8-19,75.0,67.1,62.6,63.8,59.5,56.9,82,77,67,29.85,29.73,6,1,8,0.08
2013-8-20,93.0,74.0,64.0,70.5,63.6,58.5,83,71,47,29.84,29.75,3,1,5,0.01
2013-8-21,86.7,71.7,64.0,71.6,63.2,58.5,82,75,54,29.87,29.81,4,0,9,0.00
2013-8-22,91.6,77.9,67.5,68.2,64.4,59.0,82,65,42,29.76,29.64,4,1,6,0.02
2013-8-23,90.7,70.9,62.1,68.6,61.2,56.0,81,73,46,29.77,29.61,2,1,6,0.54
2013-8-24,90.5,70.0,55.4,63.0,56.6,50.6,84,65,37,29.96,29.78,3,1,7,0.01
2013-8-25,88.5,69.4,54.7,63.5,56.1,49.3,83,65,39,30.05,29.93,3,1,5,0.00
2013-8-26,90.7,77.9,55.9,63.8,59.3,50.0,81,54,37,29.97,29.72,4,2,8,0.00
2013-8-27,94.3,76.9,62.4,69.9,62.8,54.2,78,63,44,29.72,29.58,5,1,8,0.00
2013-8-28,78.4,73.4,68.0,69.5,65.3,60.7,80,76,66,29.64,29.48,4,1,9,0.00
2013-8-29,92.8,76.6,67.8,70.3,65.7,61.1,82,70,47,29.68,29.49,4,1,10,0.00
2013-8-30,90.3,75.2,62.6,67.1,62.5,56.7,82,67,44,29.73,29.58,5,1,10,0.00
2013-8-31,92.3,75.7,65.7,70.5,63.5,58.1,80,67,48,29.60,29.49,7,2,15,0.00
2013-9-1,94.5,76.8,66.0,71.2,64.6,59.9,81,68,47,29.54,29.44,5,1,11,0.00
2013-9-2,94.3,79.4,69.4,69.7,65.3,62.7,80,64,44,29.51,29.43,5,1,11,0.00
2013-9-3,96.3,79.4,68.0,69.6,64.0,60.4,78,61,37,29.60,29.43,3,1,7,0.00
2013-9-4,87.6,72.6,61.5,63.0,58.0,52.8,77,62,43,29.76,29.60,4,1,9,0.00
2013-9-5,93.2,74.0,57.0,62.7,56.9,51.1,81,58,29,29.77,29.67,5,1,8,0.00
2013-9-6,88.7,68.8,55.2,60.8,53.0,47.7,80,59,32,29.88,29.77,4,1,9,0.12
2013-9-7,87.1,67.7,51.1,61.7,54.5,46.1,83,65,41,29.79,29.61,8,1,11,0.00
2013-9-8,96.4,75.3,57.6,67.0,59.5,51.8,81,61,37,29.65,29.55,4,1,8,0.00
2013-9-9,90.0,73.8,65.3,65.8,60.3,55.8,79,64,42,29.84,29.65,4,1,10,0.00
2013-9-10,96.4,78.5,64.2,70.4,64.6,57.8,81,64,42,29.86,29.77,6,2,11,0.00
2013-9-11,96.1,80.7,69.3,70.6,64.6,61.0,77,59,41,29.83,29.69,6,2,11,0.00
2013-9-12,95.9,79.0,68.4,70.2,64.6,58.8,80,63,43,29.69,29.44,5,2,11,0.00
2013-9-13,89.1,72.7,58.6,62.5,56.3,48.5,76,58,34,29.59,29.41,5,1,9,0.00
2013-9-14,82.0,62.0,48.0,50.6,46.1,42.0,82,59,30,29.81,29.59,6,1,9,0.00
2013-9-15,83.5,63.0,43.5,57.0,49.1,38.7,85,63,39,29.88,29.75,6,1,13,0.00
2013-9-16,80.8,67.2,54.1,62.4,55.8,47.1,77,67,51,29.87,29.73,4,1,8,0.00
2013-9-17,79.9,60.2,46.2,54.8,48.5,40.4,83,67,42,30.02,29.86,5,1,11,0.00
2013-9-18,77.9,55.7,38.7,51.3,43.2,34.5,85,66,30,29.97,29.83,3,0,9,0.00
2013-9-19,80.2,62.4,50.7,57.0,50.8,44.5,80,67,43,29.84,29.72,4,1,8,0.00
2013-9-20,82.2,66.1,54.5,63.4,56.2,48.8,82,71,53,29.74,29.61,4,1,8,0.00
2013-9-21,71.4,65.3,60.6,61.8,58.2,54.3,82,78,70,29.61,29.36,8,2,14,0.00
2013-9-22,81.0,63.0,53.1,60.0,53.3,48.0,83,73,42,29.50,29.39,3,0,8,0.00
2013-9-23,81.0,61.2,48.7,52.3,47.1,42.5,79,62,35,29.73,29.58,4,1,8,0.00
2013-9-24,85.5,63.5,48.6,55.5,49.2,43.0,82,63,35,29.75,29.59,3,1,5,0.00
2013-9-25,78.3,65.2,49.5,56.6,52.7,44.2,82,65,46,29.62,29.53,4,0,9,0.00
2013-9-26,85.1,64.9,52.2,56.8,51.0,45.0,81,64,31,29.71,29.55,4,1,8,0.00
2013-9-27,79.5,61.4,46.2,57.8,49.4,41.0,82,67,42,29.86,29.71,4,1,8,0.00
2013-9-28,72.7,59.5,48.9,54.9,49.3,43.7,83,70,50,29.93,29.84,5,1,10,0.00
2013-9-29,85.1,62.4,48.7,56.3,48.8,42.5,82,64,32,29.84,29.70,4,0,6,0.00
2013-9-30,84.4,62.1,46.0,57.5,49.0,40.9,82,65,36,29.74,29.63,4,0,8,0.00
2013-10-1,93.0,68.2,56.1,60.6,52.9,48.1,76,61,31,29.74,29.65,5,1,7,0.00
2013-10-2,95.0,70.7,54.7,62.3,54.1,48.6,80,60,31,29.76,29.67,5,1,8,0.00
2013-10-3,93.6,70.7,55.2,63.7,56.2,48.3,79,63,35,29.77,29.69,6,1,8,0.00
2013-10-4,99.0,73.9,57.7,64.3,57.8,51.6,80,61,30,29.76,29.69,4,1,6,0.00
2013-10-5,98.6,83.6,63.0,66.4,61.5,54.6,74,49,33,29.76,29.66,4,1,8,0.00
2013-10-6,90.9,75.4,62.8,63.9,59.7,54.9,76,60,34,29.70,29.57,8,2,15,0.00
2013-10-7,71.4,66.3,52.2,63.3,57.3,45.5,79,73,61,29.69,29.46,7,2,13,0.01
2013-10-8,70.0,55.8,46.6,49.3,44.4,41.2,82,67,37,29.89,29.69,5,1,17,0.00
2013-10-9,59.9,54.5,50.4,50.5,45.6,43.3,79,72,65,29.90,29.79,5,2,14,0.00
2013-10-10,61.0,55.3,50.7,53.4,49.1,44.6,82,80,75,29.79,29.61,5,2,12,0.00
2013-10-11,72.9,62.2,55.6,58.0,52.9,49.8,82,72,58,29.63,29.57,4,1,8,0.00
2013-10-12,67.8,61.6,59.0,58.7,54.7,51.5,81,78,71,29.77,29.60,4,1,8,0.00
2013-10-13,65.3,59.6,57.2,56.1,53.4,51.6,83,80,71,29.91,29.76,4,1,11,0.01
2013-10-14,74.7,58.6,50.9,58.5,51.3,45.5,84,77,54,29.94,29.85,4,1,11,0.00
2013-10-15,79.3,59.7,44.6,56.6,48.7,40.1,85,69,37,29.87,29.73,4,1,9,0.00
2013-10-16,76.1,63.7,57.4,58.8,53.4,49.9,78,70,53,29.73,29.59,4,0,8,0.00
2013-10-17,74.3,64.7,59.4,59.1,55.2,52.5,79,72,57,29.59,29.44,8,2,12,0.00
2013-10-18,77.0,59.1,43.0,53.2,43.0,36.6,80,59,26,29.69,29.51,4,1,9,0.00
2013-10-19,61.3,53.1,44.4,51.6,46.1,39.1,82,77,69,29.64,29.44,5,1,11,0.00
2013-10-20,75.4,53.6,38.3,47.2,36.6,29.4,82,58,20,29.75,29.54,4,1,8,0.01
2013-10-21,75.2,52.7,34.2,45.6,37.8,28.7,85,60,29,29.79,29.61,6,1,11,0.00
2013-10-22,75.7,59.2,50.4,48.1,44.6,40.3,74,60,36,29.62,29.44,9,3,20,0.00
2013-10-23,66.4,50.0,40.3,47.9,40.1,31.3,81,69,46,29.60,29.33,5,2,12,0.01
2013-10-24,56.5,42.6,29.7,34.1,29.1,22.9,76,60,35,29.80,29.59,11,2,22,0.00
2013-10-25,67.1,42.8,27.5,34.1,24.4,16.0,78,54,19,29.96,29.80,7,1,11,0.00
2013-10-26,61.9,43.6,24.8,33.4,24.9,17.9,79,52,24,29.96,29.63,14,3,19,0.00
2013-10-27,69.3,52.5,36.9,39.1,35.2,28.4,77,54,31,29.75,29.63,8,2,17,0.00
2013-10-28,74.8,52.6,34.3,46.2,38.4,28.2,82,62,27,29.89,29.74,7,1,15,0.00
2013-10-29,76.1,58.3,49.1,48.9,44.4,41.4,79,62,35,29.99,29.87,6,1,8,0.00
2013-10-30,75.0,57.6,50.0,57.3,48.5,42.4,80,72,53,29.94,29.78,6,1,13,0.00
2013-10-31,72.1,62.3,53.2,56.0,51.7,47.2,81,69,54,29.82,29.47,11,2,19,0.01
2013-11-1,74.8,66.9,59.9,58.7,55.7,52.5,80,67,56,29.47,29.28,17,5,25,0.21
2013-11-2,74.5,58.8,45.9,53.4,41.3,28.4,84,57,20,29.57,29.31,12,2,21,0.00
2013-11-3,71.1,50.0,33.3,40.0,30.9,21.2,76,52,16,30.03,29.57,6,1,11,0.00
2013-11-4,57.2,40.4,31.6,27.6,24.2,21.6,71,54,29,30.22,30.03,8,2,13,0.00
2013-11-5,57.6,44.6,32.9,39.1,31.7,22.9,72,61,42,30.22,30.09,4,1,8,0.00
2013-11-6,77.0,56.7,47.5,52.3,44.5,38.0,76,65,40,30.09,29.74,5,1,10,0.00
2013-11-7,68.2,54.9,39.7,52.9,42.5,27.3,81,64,32,29.74,29.55,11,3,17,0.00
2013-11-8,62.2,43.7,28.9,27.2,22.1,17.2,68,45,20,29.95,29.72,10,2,19,0.00
2013-11-9,60.3,42.4,25.5,29.7,23.8,17.5,76,51,24,29.99,29.74,11,3,17,0.00
2013-11-10,72.1,52.4,39.2,36.2,25.9,14.5,63,40,11,29.89,29.65,17,4,29,0.00
2013-11-11,64.2,45.7,27.1,30.4,24.3,18.2,74,46,21,29.96,29.70,11,2,16,0.00
2013-11-12,50.0,40.0,24.6,34.3,22.0,6.8,65,49,32,30.05,29.61,8,2,17,0.00
2013-11-13,25.0,22.9,19.9,10.3,8.7,7.3,65,54,47,30.05,30.04,2,0,4,0.00
2013-11-14,66.4,45.4,27.1,21.4,15.7,9.7,55,32,16,30.00,29.90,8,4,12,0.00
2013-11-15,62.2,47.8,34.0,42.4,27.2,17.9,82,47,21,29.92,29.82,10,3,14,0.00
2013-11-16,55.9,51.8,47.8,49.2,46.8,42.4,85,83,78,29.92,29.85,2,0,4,0.00
2013-11-17,64.9,58.3,53.2,54.1,51.4,48.9,85,78,68,29.86,29.47,8,2,10,0.01
2013-11-18,68.9,63.6,48.7,57.0,39.0,22.0,78,46,17,29.60,29.39,8,4,10,0.00
2013-11-19,60.8,45.5,36.3,25.8,23.9,21.8,60,44,24,29.97,29.59,4,1,6,0.00
2013-11-20,54.5,41.4,33.1,26.4,23.4,21.2,65,51,27,30.11,29.98,6,2,8,0.00
2013-11-21,58.6,43.4,33.4,40.6,33.8,24.4,77,69,51,30.14,30.02,3,1,5,0.00
2013-11-22,70.7,57.0,44.6,53.8,46.3,37.2,75,68,55,30.02,29.69,11,5,16,0.00
2013-11-23,62.4,52.2,35.2,50.9,31.5,9.7,73,48,20,29.81,29.67,7,3,10,0.00
2013-11-24,44.6,29.8,15.4,11.6,0.8,-8.6,54,29,20,30.14,29.81,8,3,13,0.00
2013-11-25,37.0,26.8,14.5,12.0,3.9,1.3,65,40,22,30.17,29.97,6,2,10,0.00
2013-11-26,39.2,34.2,30.9,35.7,25.7,6.6,88,73,31,29.99,29.24,3,1,8,0.00
2013-11-27,42.8,38.1,27.3,39.0,30.9,11.6,88,76,47,29.69,29.18,5,2,11,0.01
2013-11-28,46.6,32.2,20.3,14.7,11.7,7.7,66,44,23,30.07,29.69,5,2,7,0.00
2013-11-29,54.9,36.5,22.1,25.8,17.9,13.2,69,49,24,30.28,30.06,4,1,8,0.00
2013-11-30,45.0,30.6,21.4,20.6,16.4,13.5,75,58,32,30.29,30.00,1,0,3,0.00
2013-12-1,60.6,41.4,20.7,26.6,22.0,14.9,78,51,24,30.00,29.65,7,3,8,0.00
2013-12-2,64.2,44.4,27.9,36.1,29.0,19.7,77,57,33,29.65,29.48,3,1,5,0.00
2013-12-3,62.1,46.2,32.5,40.5,35.5,27.1,81,68,45,29.62,29.50,4,1,5,0.00
2013-12-4,59.2,52.2,42.3,49.0,44.7,37.8,84,76,67,29.71,29.62,4,1,7,0.00
2013-12-5,64.0,59.6,54.7,56.5,53.8,49.0,85,81,76,29.72,29.62,5,3,9,0.01
2013-12-6,72.9,61.6,41.7,59.1,53.4,36.9,83,75,62,29.71,29.55,9,4,13,0.02
2013-12-7,45.5,40.3,34.3,36.9,33.6,25.1,86,77,67,30.11,29.71,5,3,8,0.00
2013-12-8,34.5,30.1,28.2,26.6,23.0,20.6,83,75,64,30.12,29.91,6,1,8,0.00
2013-12-9,37.4,33.6,31.3,33.3,28.9,26.7,85,83,80,29.90,29.66,8,1,11,0.00
2013-12-10,48.9,35.0,28.2,40.3,26.3,15.2,87,72,45,29.88,29.60,17,3,24,0.02
2013-12-11,51.4,37.3,22.6,21.9,17.3,11.8,65,45,26,30.02,29.86,7,3,14,0.00
2013-12-12,43.3,32.6,23.5,18.1,8.1,-3.9,65,38,21,30.02,29.87,11,2,17,0.00
2013-12-13,50.9,36.5,25.5,19.5,11.1,0.1,53,35,21,29.95,29.86,11,4,17,0.00
2013-12-14,38.1,34.9,33.4,30.3,25.5,16.9,83,69,46,29.91,29.39,6,1,10,0.01
2013-12-15,53.6,40.0,31.1,37.8,27.8,21.0,86,64,35,29.64,29.30,14,4,22,0.00
2013-12-16,51.1,36.7,28.0,30.0,25.5,19.9,77,64,43,29.77,29.62,8,2,11,0.00
2013-12-17,60.6,37.9,25.7,36.5,28.8,19.5,84,71,38,29.73,29.52,10,2,21,0.01
2013-12-18,48.2,37.3,27.5,27.6,18.3,11.4,76,48,24,29.85,29.63,12,3,17,0.00
2013-12-19,66.9,46.3,30.7,27.2,20.3,14.9,56,38,17,29.86,29.77,11,4,19,0.00
2013-12-20,66.6,52.4,41.9,44.2,35.3,24.4,67,52,39,29.81,29.69,14,6,21,0.00
2013-12-21,67.6,59.4,50.7,56.3,49.5,40.9,80,70,59,29.73,29.61,12,5,21,0.00
2013-12-22,70.0,64.1,59.7,59.4,55.9,53.0,82,75,67,29.68,29.57,12,5,24,0.01
2013-12-23,63.5,55.8,38.3,57.4,48.9,30.1,82,78,70,29.81,29.59,10,3,16,0.00
2013-12-24,46.2,33.6,20.3,30.8,18.6,5.3,82,56,26,30.07,29.81,13,2,21,0.00
2013-12-25,42.6,25.4,13.6,15.1,6.4,0.6,73,47,21,30.16,29.98,8,1,10,0.00
2013-12-26,59.4,33.8,21.2,23.3,15.1,8.3,62,48,23,29.99,29.84,11,3,19,0.00
2013-12-27,56.3,39.6,24.8,25.8,16.0,11.9,63,41,20,30.06,29.96,10,2,14,0.00
2013-12-28,60.8,45.2,29.5,31.2,21.9,15.3,62,41,21,29.99,29.79,8,2,13,0.01
2013-12-29,56.7,44.8,39.6,46.1,37.9,31.1,86,77,63,29.79,29.27,16,3,22,0.08
2013-12-30,51.3,41.5,33.6,38.1,31.8,24.6,81,69,50,29.77,29.50,6,2,14,0.00
2013-12-31,54.1,38.7,26.6,32.2,19.3,9.6,82,50,21,29.95,29.75,15,4,28,0.00
2014-1-1,54.0,36.6,23.7,27.0,18.5,12.4,68,50,25,30.00,29.75,9,2,14,0.00
2014-1-2,43.0,34.5,30.4,32.5,26.4,20.0,83,72,61,29.74,29.22,5,1,8,0.01